Flag for Germany Weather past 2 weeks in Demmin, Mecklenburg-Western Pomerania, Germany

Now
55 °F

Passing clouds.


Feels Like: 52 °F
Forecast: 38 / 60 °F
Wind: 9 mph from North

Location: Greifswald

Current Time: Apr 21, 2015 at 2:17:28 PM

Latest Report: Apr 21, 2015 at 1:00 PM


Visibility: 19 mi

Pressure: 30.26 "Hg

Humidity: 57%

Dew point: 40 °F

Location of DemminLocation

Historic Weather in Demmin — Graph

°F

Demmin temperature yesterday

Maximum temperature yesterday: 54 °F (at 3:00 PM)
Minimum temperature yesterday: 41 °F (at 3:00 AM)
Average temperature yesterday: 48 °F

Past Weeks' High & Low Weather Summary

 TemperatureHumidityPressure
High69 °F (Apr 11, 2:00 PM)100% (Apr 9, 3:00 AM)30.55 "Hg (Apr 9, 3:00 AM)
Low34 °F (Apr 10, 6:00 AM)37% (Apr 11, 4:00 PM)29.76 "Hg (Apr 15, 6:00 PM)
Average47 °F71%30.19 "Hg
* Reported Apr 6 1:00 PM — Apr 21 1:00 PM, Demmin, Weather by CustomWeather, © 2015

Note: Actual official high and low records may vary slightly from our data, if they occured in-between our weather recording intervals... More about our weather records

Advertising

Demmin weather history for previous 24 hours

 ConditionsComfort  
Time TempWeatherWind HumidityBarometerVisibility
1:00 PM
Tue, Apr 21
55 °FPassing clouds.9 mph57%30.26 "Hg19 mi
12:00 PM55 °FPassing clouds.9 mph55%30.26 "Hg17 mi
10:00 AM55 °FScattered clouds.7 mph49%30.23 "Hg19 mi
9:00 AM54 °FPassing clouds.7 mph53%30.23 "Hg16 mi
8:00 AM49 °FPassing clouds.6 mph63%30.21 "Hg22 mi
7:00 AM45 °FPassing clouds.5 mph66%30.22 "Hg25 mi
6:00 AM42 °FPassing clouds.3 mph74%30.22 "Hg22 mi
4:00 AM43 °FClear.3 mph73%30.26 "Hg31 mi
3:00 AM42 °FClear.3 mph77%30.28 "Hg31 mi
2:00 AM43 °FClear.3 mph75%30.29 "Hg31 mi
1:00 AM46 °FClear.5 mph69%30.29 "Hg31 mi
12:00 AM47 °FPassing clouds.5 mph64%30.30 "Hg31 mi
10:00 PM
Mon, Apr 20
50 °FPassing clouds.3 mph59%30.30 "Hg34 mi
9:00 PM51 °FPassing clouds.2 mph54%30.30 "Hg37 mi
8:00 PM52 °FOvercast.2 mph56%30.30 "Hg37 mi
7:00 PM53 °FOvercast.1 mph54%30.30 "Hg37 mi
6:00 PM53 °FOvercast.2 mph54%30.31 "Hg37 mi
4:00 PM54 °FScattered clouds.6 mph55%30.32 "Hg22 mi
3:00 PM54 °FScattered clouds.8 mph50%30.32 "Hg25 mi
2:00 PM53 °FPassing clouds.7 mph52%30.32 "Hg25 mi
Weather by CustomWeather, © 2015

See weather overviewHow to use our weather pages